[[{"header":{"parameterUnit":"m.s-1","parameterCategory":1,"la1":30.2992,"la2":30.254,"lo1":-89.0895,"lo2":-89.0443,"dy":0.0025,"dx":0.0025,"nx":19,"ny":19,"refTime":"2026-05-02T21:00:00:Z","depth":0,"parameterNumber":2,"parameterNumberName":"U-component_of_WINDS"},"data":[0,0,0,-1.5328,-1.5332,-1.5542,-1.5543,-1.5826,-1.5828,0,0,0,0,0,0,0,0,0,0,0,-1.5272,-1.5275,-1.5327,-1.5333,-1.5542,-1.5543,-1.5825,-1.5828,0,0,0,0,0,0,0,0,0,0,0,-1.5271,-1.5274,-1.5277,-1.5334,-1.5542,-1.5543,-1.5824,-1.5662,0,0,0,0,0,0,0,0,0,0,-1.5456,-1.5411,-1.5273,-1.5277,-1.5335,-1.5542,-1.5543,-1.5653,-1.5672,-1.5736,0,-1.5793,0,-1.5815,-1.5848,-1.5849,0,0,0,-1.5328,-1.5396,-1.5446,-1.5277,-1.5337,-1.5542,-1.5446,-1.5664,-1.5684,-1.576,-1.5797,-1.5807,-1.582,-1.585,-1.5851,-1.6235,-1.6237,0,0,-1.5317,-1.5315,-1.5432,-1.5459,-1.5426,-1.544,-1.5453,-1.5676,-1.5717,-1.5798,-1.5814,-1.5824,-1.5852,-1.5854,-1.6233,-1.6235,0,0,0,-1.5286,-1.5307,-1.5351,-1.5448,-1.5485,-1.5446,-1.5461,-1.5707,-1.5721,-1.5817,-1.5828,-1.5853,-1.5857,-1.6231,-1.6234,-1.6334,0,0,0,-1.5279,-1.5289,-1.5346,-1.5347,-1.5481,-1.5598,-1.5488,-1.5706,-1.5731,-1.5826,-1.5853,-1.586,-1.6228,-1.6232,-1.6327,-1.6384,0,0,0,-1.5257,-1.5286,-1.5319,-1.5346,-1.5436,-1.5595,-1.5622,-1.5711,-1.5738,-1.5849,-1.5861,-1.6227,-1.6232,-1.632,-1.6373,-1.6489,0,0,0,-1.5232,-1.5404,-1.532,-1.5516,-1.5434,-1.5653,-1.562,-1.5783,-1.589,-1.5855,-1.6229,-1.6233,-1.6318,-1.6366,-1.6481,-1.6589,-1.6632,0,0,-1.5448,-1.543,-1.5545,-1.5476,-1.571,-1.5621,-1.587,-1.5969,-1.5981,-1.615,-1.6159,-1.6329,-1.6372,-1.6487,-1.6864,-1.6899,0,0,0,-1.5613,-1.5697,-1.5759,-1.586,-1.5938,-1.6013,-1.6073,-1.611,-1.6253,-1.6067,-1.6399,-1.6425,-1.6492,-1.6544,-1.6574,-1.6634,-1.6255,-1.6255,-1.6255,-1.592,-1.5925,-1.6118,-1.6149,-1.6247,-1.6308,-1.6389,-1.6449,-1.6426,-1.6504,-1.6557,-1.6785,-1.6845,-1.6867,-1.693,-1.6608,-1.6609,-1.6609,-1.6609,-1.6242,-1.6364,-1.6327,-1.6501,-1.6506,-1.6653,-1.6718,-1.6696,-1.6836,-1.6745,-1.6805,-1.6712,-1.6905,-1.696,-1.6617,-1.6616,-1.6615,-1.6614,-1.6613,-1.645,-1.6509,-1.6549,-1.6696,-1.6809,-1.6832,-1.6968,-1.6966,-1.6965,-1.7024,-1.7082,-1.7081,-1.7084,-1.705,-1.7051,-1.7052,-1.7052,-1.7053,-1.7053,-1.6652,-1.6693,-1.6808,-1.6905,-1.697,-1.7056,-1.7116,-1.7181,-1.7253,-1.7241,-1.7242,-1.7214,-1.6919,-1.685,-1.7066,-1.7064,-1.7062,-1.7061,-1.706,-1.6989,-1.6911,-1.7088,-1.7154,-1.7269,-1.7383,-1.7375,-1.7508,-1.756,-1.7628,-1.7585,-1.7365,-1.7348,-1.7325,-1.7268,-1.758,-1.7579,-1.758,-1.758,-1.7169,-1.7157,-1.7339,-1.7444,-1.7546,-1.7557,-1.776,-1.7809,-1.7847,-1.7881,-1.7834,-1.7755,-1.773,-1.7728,-1.7696,-1.7643,-1.8043,-1.8044,-1.8044,-1.7379,-1.7377,-1.7551,-1.7585,-1.7674,-1.7752,-1.7944,-1.8068,-1.8094,-1.8063,-1.7909,-1.7889,-1.7761,-1.7718,-1.7691,-1.7641,-1.7544,0,0]},{"header":{"parameterUnit":"m.s-1","parameterCategory":1,"la1":30.2992,"la2":30.254,"lo1":-89.0895,"lo2":-89.0443,"dy":0.0025,"dx":0.0025,"nx":19,"ny":19,"refTime":"2026-05-02T21:00:00:Z","depth":0,"parameterNumber":3,"parameterNumberName":"V-component_of_WINDS"},"data":[0,0,0,-5.2755,-5.276,-5.3001,-5.3002,-5.3327,-5.333,0,0,0,0,0,0,0,0,0,0,0,-5.2697,-5.27,-5.2755,-5.2761,-5.3001,-5.3002,-5.3326,-5.333,0,0,0,0,0,0,0,0,0,0,0,-5.2696,-5.2699,-5.2703,-5.2762,-5.3001,-5.3002,-5.3325,-5.3137,0,0,0,0,0,0,0,0,0,0,-5.2901,-5.2861,-5.2699,-5.2703,-5.2764,-5.3,-5.3002,-5.3128,-5.3149,-5.3226,0,-5.3301,0,-5.3321,-5.3353,-5.3354,0,0,0,-5.275,-5.2844,-5.2897,-5.2703,-5.2766,-5.3,-5.289,-5.3139,-5.3163,-5.3254,-5.3305,-5.3317,-5.3326,-5.3355,-5.3357,-5.3845,-5.3847,0,0,-5.2737,-5.2747,-5.288,-5.2913,-5.288,-5.2882,-5.2897,-5.3153,-5.3209,-5.3306,-5.3324,-5.3332,-5.3357,-5.336,-5.3842,-5.3845,0,0,0,-5.2706,-5.2739,-5.2785,-5.29,-5.2942,-5.2889,-5.2907,-5.3197,-5.3212,-5.3327,-5.3335,-5.3359,-5.3364,-5.3839,-5.3843,-5.3993,0,0,0,-5.2698,-5.2721,-5.2779,-5.2788,-5.2938,-5.3073,-5.2945,-5.3194,-5.3222,-5.3334,-5.3359,-5.3367,-5.3836,-5.3841,-5.3983,-5.4063,0,0,0,-5.2677,-5.2718,-5.2758,-5.2788,-5.2892,-5.3069,-5.3098,-5.32,-5.3228,-5.3354,-5.3368,-5.3834,-5.384,-5.3973,-5.4047,-5.4196,0,0,0,-5.2657,-5.2886,-5.276,-5.3017,-5.289,-5.316,-5.3096,-5.3296,-5.3422,-5.3361,-5.3836,-5.3843,-5.397,-5.4038,-5.4186,-5.4326,-5.4384,0,0,-5.2951,-5.2922,-5.3072,-5.2967,-5.3262,-5.3122,-5.3439,-5.3543,-5.3544,-5.3743,-5.3755,-5.3986,-5.4046,-5.4194,-5.4704,-5.475,0,0,0,-5.3169,-5.3278,-5.3353,-5.3475,-5.3561,-5.3642,-5.3696,-5.3734,-5.3904,-5.365,-5.4078,-5.4114,-5.42,-5.4266,-5.4306,-5.438,-5.3873,-5.3872,-5.3872,-5.3601,-5.3591,-5.384,-5.386,-5.3978,-5.4032,-5.4127,-5.4187,-5.4141,-5.4242,-5.4303,-5.4613,-5.4691,-5.4721,-5.4798,-5.4373,-5.4373,-5.4374,-5.4374,-5.4033,-5.4186,-5.412,-5.4338,-5.4325,-5.4507,-5.4567,-5.4528,-5.4695,-5.4567,-5.4642,-5.4506,-5.4773,-5.484,-5.4385,-5.4384,-5.4382,-5.4381,-5.438,-5.4317,-5.4389,-5.4432,-5.4607,-5.4742,-5.4752,-5.4916,-5.4897,-5.488,-5.4954,-5.5017,-5.5014,-5.5011,-5.4985,-5.4986,-5.4987,-5.4988,-5.4988,-5.4989,-5.4597,-5.4641,-5.4783,-5.4893,-5.4968,-5.5065,-5.512,-5.5193,-5.5269,-5.5242,-5.5242,-5.5188,-5.48,-5.4704,-5.5006,-5.5003,-5.5001,-5.4999,-5.4998,-5.5043,-5.4939,-5.5159,-5.5235,-5.5362,-5.5498,-5.547,-5.5621,-5.5677,-5.5759,-5.5687,-5.5402,-5.537,-5.5338,-5.526,-5.5687,-5.5687,-5.5687,-5.5687,-5.5286,-5.5267,-5.5488,-5.561,-5.5728,-5.5725,-5.5972,-5.6016,-5.6044,-5.6079,-5.6013,-5.5906,-5.5874,-5.5861,-5.5818,-5.5744,-5.6285,-5.6286,-5.6286,-5.5561,-5.5553,-5.5769,-5.5797,-5.5894,-5.5978,-5.621,-5.6351,-5.6361,-5.631,-5.6106,-5.608,-5.5907,-5.585,-5.5798,-5.5732,-5.5596,0,0]}]]